Tracking 28790 objects as of 18-Apr-2024
HD Live streaming from Space Station
objects crossing your sky now

SL-16 DEB

Track SL-16 DEB now!
10-day predictions


NORAD ID: 22405
Int'l Code: 1992-093CW
Perigee: 674.2 km
Apogee: 849.3 km
Inclination: 71.0 °
Period: 99.9 minutes
Semi major axis: 7132 km
RCS: 0.125 m2 (medium)
Launch date: December 25, 1992
Source: Commonwealth of Independent States (former USSR) (CIS)
Launch site: TYURATAM MISSILE AND SPACE COMPLEX (TTMTR)

Note: This is SATELLITE DEBRIS
Your satellite tracking list
Your tracking list is empty




NASA's NSSDC Master Catalog

Two Line Element Set (TLE):
1 22405U 92093CW  24109.51434080  .00000996  00000-0  29753-3 0  9990
2 22405  71.0359 179.6436 0122780  51.6909 309.5191 14.41170933620746
Source of the keplerian elements: AFSPC